{"data":{"norad_id":58886,"intl_designator":"2024-020L","name":"STARLINK-31320","alt_names":[],"object_type":"PAYLOAD","status":"ACTIVE","operator":null,"country":"US","launch_date":"2024-01-29","launch_site_code":"AFWTR","launch_vehicle":null,"mission":null,"orbit_class":"UNKNOWN","rcs_meters":null,"size_class":null,"mass_kg":null,"dimensions":null,"purposes":["comms"],"wikipedia_slug":null,"has_3d_model":false,"image_url":null,"decayed_at":null,"tle_current":{"epoch":"2026-09-20T00:38:51.268128Z","epoch_age_seconds":193708,"freshness":"STALE","line1":"1 58886U 24020L   26263.02698227  .00001527  00000+0  56351-4 0  9996","line2":"2 58886  53.1594 135.5874 0001421  91.9294 268.1871 15.34390202147889","mean_motion":15.34390202,"eccentricity":0.0001421,"inclination_deg":53.1594,"raan_deg":135.5874,"arg_perigee_deg":91.9294,"mean_anomaly_deg":268.1871,"bstar":5.6351e-5,"rev_number":14788,"period_min":93.848357355452,"perigee_km":461.76027454655,"apogee_km":463.70444961926,"semimajor_km":6840.8693620829,"source":"CELESTRAK","updated_at":"2026-09-21T09:00:33.993796Z"}}}